TimeCST,TemperatureF,Dew PointF,Humidity,Sea Level PressureIn,VisibilityMPH,Wind Direction,Wind SpeedMPH,Gust SpeedMPH,PrecipitationIn,Events,Conditions,WindDirDegrees,DateUTC
12:15 AM,46.4,30.2,53,29.81,10.0,South,28.8,33.4,N/A,,Overcast,170,2012-12-06 06:15:00
12:35 AM,44.6,30.2,57,29.81,10.0,South,24.2,33.4,N/A,,Overcast,170,2012-12-06 06:35:00
12:55 AM,44.6,30.2,57,29.80,10.0,SSE,26.5,31.1,N/A,,Overcast,160,2012-12-06 06:55:00
1:15 AM,44.6,30.2,57,29.79,10.0,South,26.5,31.1,N/A,,Overcast,170,2012-12-06 07:15:00
1:35 AM,44.6,30.2,57,29.79,10.0,South,24.2,28.8,N/A,,Overcast,170,2012-12-06 07:35:00
1:55 AM,44.6,30.2,57,29.80,10.0,South,21.9,29.9,N/A,,Overcast,180,2012-12-06 07:55:00
2:15 AM,44.6,30.2,57,29.80,10.0,South,17.3,-,N/A,,Overcast,180,2012-12-06 08:15:00
2:35 AM,44.6,30.2,57,29.80,10.0,South,17.3,27.6,N/A,,Overcast,170,2012-12-06 08:35:00
2:55 AM,44.6,30.2,57,29.80,10.0,South,16.1,24.2,N/A,,Overcast,180,2012-12-06 08:55:00
3:15 AM,44.6,30.2,57,29.81,10.0,South,15.0,-,N/A,,Overcast,180,2012-12-06 09:15:00
3:35 AM,44.6,30.2,57,29.80,10.0,South,16.1,-,N/A,,Overcast,190,2012-12-06 09:35:00
3:55 AM,44.6,32.0,61,29.80,10.0,South,16.1,-,N/A,,Overcast,190,2012-12-06 09:55:00
4:15 AM,44.6,32.0,61,29.80,10.0,South,16.1,-,N/A,,Overcast,190,2012-12-06 10:15:00
4:35 AM,42.8,33.8,70,29.79,10.0,South,17.3,-,N/A,,Overcast,180,2012-12-06 10:35:00
4:55 AM,42.8,35.6,76,29.82,10.0,SSW,11.5,-,0.01,,Overcast,200,2012-12-06 10:55:00
5:15 AM,42.8,35.6,76,29.82,10.0,SSW,11.5,-,0.03,,Overcast,200,2012-12-06 11:15:00
5:35 AM,41.0,35.6,81,29.82,10.0,SSW,8.1,-,0.06,,Overcast,200,2012-12-06 11:35:00
5:55 AM,41.0,35.6,81,29.83,10.0,SSW,9.2,-,0.08,,Overcast,200,2012-12-06 11:55:00
6:15 AM,41.0,35.6,81,29.83,10.0,SSW,9.2,-,0.03,,Overcast,200,2012-12-06 12:15:00
6:35 AM,41.0,35.6,81,29.83,10.0,South,10.4,-,0.05,,Overcast,190,2012-12-06 12:35:00
6:55 AM,41.0,35.6,81,29.83,10.0,SSW,10.4,-,0.05,,Overcast,200,2012-12-06 12:55:00
7:15 AM,41.0,35.6,81,29.83,10.0,SSW,9.2,-,N/A,,Overcast,200,2012-12-06 13:15:00
7:35 AM,41.0,35.6,81,29.84,10.0,SSW,9.2,-,N/A,,Overcast,200,2012-12-06 13:35:00
7:55 AM,41.0,35.6,81,29.83,10.0,SSW,9.2,-,N/A,,Mostly Cloudy,210,2012-12-06 13:55:00
8:15 AM,39.2,35.6,87,29.84,10.0,SW,6.9,-,N/A,,Partly Cloudy,230,2012-12-06 14:15:00
8:35 AM,41.0,35.6,81,29.85,10.0,WSW,6.9,-,N/A,,Clear,240,2012-12-06 14:35:00
8:55 AM,41.0,35.6,81,29.86,10.0,West,8.1,-,N/A,,Clear,280,2012-12-06 14:55:00
9:15 AM,42.8,33.8,70,29.87,10.0,NW,10.4,-,N/A,,Clear,310,2012-12-06 15:15:00
9:35 AM,42.8,33.8,70,29.87,10.0,NNW,9.2,-,N/A,,Clear,330,2012-12-06 15:35:00
9:55 AM,42.8,33.8,70,29.87,10.0,NNW,12.7,-,N/A,,Clear,330,2012-12-06 15:55:00
10:15 AM,42.8,32.0,66,29.89,10.0,NNW,13.8,-,N/A,,Clear,330,2012-12-06 16:15:00
10:35 AM,42.8,32.0,66,29.89,10.0,NNW,15.0,19.6,N/A,,Clear,330,2012-12-06 16:35:00
10:55 AM,42.8,30.2,61,29.89,10.0,NW,17.3,23.0,N/A,,Clear,320,2012-12-06 16:55:00
11:15 AM,42.8,30.2,61,29.89,10.0,NNW,16.1,-,N/A,,Clear,330,2012-12-06 17:15:00
11:35 AM,42.8,30.2,61,29.89,10.0,NNW,19.6,23.0,N/A,,Clear,330,2012-12-06 17:35:00
11:55 AM,42.8,30.2,61,29.89,10.0,NNW,17.3,-,N/A,,Clear,330,2012-12-06 17:55:00
12:15 PM,42.8,30.2,61,29.88,10.0,NW,16.1,-,N/A,,Clear,320,2012-12-06 18:15:00
12:35 PM,42.8,32.0,66,29.89,10.0,NW,16.1,-,N/A,,Clear,310,2012-12-06 18:35:00
12:55 PM,44.6,30.2,57,29.89,10.0,NW,13.8,19.6,N/A,,Partly Cloudy,320,2012-12-06 18:55:00
1:15 PM,44.6,30.2,57,29.89,10.0,NW,13.8,-,N/A,,Scattered Clouds,320,2012-12-06 19:15:00
1:35 PM,44.6,30.2,57,29.89,10.0,NW,13.8,-,N/A,,Partly Cloudy,320,2012-12-06 19:35:00
1:55 PM,44.6,30.2,57,29.88,10.0,NW,15.0,-,N/A,,Scattered Clouds,310,2012-12-06 19:55:00
2:15 PM,44.6,30.2,57,29.89,10.0,NW,12.7,-,N/A,,Overcast,320,2012-12-06 20:15:00
2:35 PM,44.6,30.2,57,29.89,10.0,NW,10.4,-,N/A,,Overcast,320,2012-12-06 20:35:00
2:55 PM,44.6,30.2,57,29.90,10.0,NW,10.4,-,N/A,,Overcast,310,2012-12-06 20:55:00
3:15 PM,44.6,30.2,57,29.90,10.0,WNW,10.4,-,N/A,,Scattered Clouds,300,2012-12-06 21:15:00
3:35 PM,44.6,30.2,57,29.91,10.0,NW,8.1,-,N/A,,Mostly Cloudy,310,2012-12-06 21:35:00
3:55 PM,42.8,30.2,61,29.91,10.0,NW,11.5,-,N/A,,Overcast,310,2012-12-06 21:55:00
4:15 PM,42.8,30.2,61,29.92,10.0,NW,11.5,-,N/A,,Overcast,310,2012-12-06 22:15:00
4:35 PM,42.8,30.2,61,29.92,10.0,NW,8.1,-,N/A,,Overcast,310,2012-12-06 22:35:00
4:55 PM,42.8,30.2,61,29.92,10.0,NW,8.1,-,N/A,,Overcast,320,2012-12-06 22:55:00
5:15 PM,41.0,30.2,65,29.92,10.0,NNW,8.1,-,N/A,,Overcast,330,2012-12-06 23:15:00
5:35 PM,41.0,30.2,65,29.93,10.0,NNW,5.8,-,N/A,,Overcast,330,2012-12-06 23:35:00
5:55 PM,39.2,30.2,70,29.94,10.0,NNW,5.8,-,N/A,,Overcast,340,2012-12-06 23:55:00
6:15 PM,39.2,30.2,70,29.94,10.0,NNW,6.9,-,N/A,,Overcast,330,2012-12-07 00:15:00
6:35 PM,39.2,28.4,65,29.94,10.0,NNW,8.1,-,N/A,,Overcast,330,2012-12-07 00:35:00
6:55 PM,39.2,28.4,65,29.95,10.0,NW,8.1,-,N/A,,Scattered Clouds,320,2012-12-07 00:55:00
7:15 PM,39.2,28.4,65,29.95,10.0,NNW,9.2,-,N/A,,Scattered Clouds,340,2012-12-07 01:15:00
7:35 PM,39.2,28.4,65,29.96,10.0,NNW,9.2,-,N/A,,Overcast,330,2012-12-07 01:35:00
7:55 PM,37.4,28.4,70,29.97,10.0,NNW,9.2,-,N/A,,Overcast,330,2012-12-07 01:55:00
8:35 PM,37.4,26.6,65,29.97,10.0,NNW,10.4,-,N/A,,Overcast,330,2012-12-07 02:35:00
8:55 PM,37.4,26.6,65,29.97,10.0,NNW,10.4,-,N/A,,Mostly Cloudy,330,2012-12-07 02:55:00
9:15 PM,35.6,26.6,70,29.97,10.0,North,10.4,-,N/A,,Overcast,350,2012-12-07 03:15:00
9:35 PM,35.6,26.6,70,29.98,10.0,North,11.5,-,N/A,,Scattered Clouds,350,2012-12-07 03:35:00
9:55 PM,35.6,24.8,65,29.98,10.0,North,10.4,-,N/A,,Partly Cloudy,360,2012-12-07 03:55:00
10:15 PM,33.8,24.8,70,29.98,10.0,North,11.5,-,N/A,,Scattered Clouds,350,2012-12-07 04:15:00
10:35 PM,33.8,23.0,65,29.99,10.0,North,10.4,-,N/A,,Mostly Cloudy,350,2012-12-07 04:35:00
10:55 PM,33.8,23.0,65,29.99,10.0,NNW,8.1,-,N/A,,Mostly Cloudy,340,2012-12-07 04:55:00
11:15 PM,32.0,21.2,64,30.00,10.0,NNW,9.2,-,N/A,,Scattered Clouds,340,2012-12-07 05:15:00
11:35 PM,32.0,21.2,64,30.00,10.0,North,9.2,-,N/A,,Mostly Cloudy,350,2012-12-07 05:35:00
11:55 PM,32.0,21.2,64,29.99,10.0,North,10.4,-,N/A,,Mostly Cloudy,360,2012-12-07 05:55:00